LICB

Comiso Airport

Airport
ICAO code
LICB
IATA Code
CIY
Summary
ICAO Region
EUR
ICAO Territory
Location

Comiso, Sicily

Serving
Comiso
Elevation
620 ft
Coordinates
36° 59' 41" N , 14° 36' 27" E
KCC
Metar
LICB 210620Z AUTO VRB01KT 9999 NCD 29/16 Q1011

Comiso Airport "Pio La Torre", also known as Vincenzo Magliocco Airport, is located in the Sicilian town of Comiso in the Ragusa province.

Climatology

Warm mediterranean climate (Köppen climate classification Csa)

Runways

Designator Length Width Surface Rops
5/23 2460 45 ASPHALT No/No

Airport map

Aerial View

SKYbrary Partners:

Safety knowledge contributed by: